TimeCET,TemperatureF,Dew PointF,Humidity,Sea Level PressureIn,VisibilityMPH,Wind Direction,Wind SpeedMPH,Gust SpeedMPH,PrecipitationIn,Events,Conditions,WindDirDegrees,DateUTC
12:55 AM,37.4,32.0,81,30.06,3.7,SE,3.5,-,N/A,,Overcast,130,2012-11-11 23:55:00
1:00 AM,37,32,75,,4,SE,3.5,,,,Mist,130,2012-11-12 00:00:00
3:55 AM,35.6,32.0,87,30.09,3.7,ESE,5.8,-,N/A,,Overcast,110,2012-11-12 02:55:00
4:00 AM,36,31,76,,4,ESE,5.8,,,,Mist,110,2012-11-12 03:00:00
6:55 AM,35.6,32.0,87,30.12,6.2,East,2.3,-,N/A,,Partly Cloudy,90,2012-11-12 05:55:00
7:55 AM,35.6,32.0,87,30.15,6.2,ESE,4.6,-,N/A,,Scattered Clouds,120,2012-11-12 06:55:00
8:55 AM,35.6,32.0,87,30.15,6.2,SE,4.6,-,N/A,,Scattered Clouds,140,2012-11-12 07:55:00
9:55 AM,37.4,32.0,81,30.18,0.2,SE,6.9,-,N/A,Fog,Fog,130,2012-11-12 08:55:00
10:00 AM,37,33,78,,0,SE,6.9,,,Fog,Heavy Fog,130,2012-11-12 09:00:00
10:55 AM,39.2,33.8,81,30.18,0.4,East,5.8,-,N/A,Fog,Fog,100,2012-11-12 09:55:00
11:55 AM,39.2,35.6,87,30.18,0.2,ESE,6.9,-,N/A,Fog,Fog,110,2012-11-12 10:55:00
12:55 PM,39.2,35.6,87,30.18,0.2,South,6.9,-,N/A,Fog,Fog,190,2012-11-12 11:55:00
1:00 PM,39,35,80,,0,South,6.9,,,Fog,Heavy Fog,190,2012-11-12 12:00:00
1:55 PM,39.2,35.6,87,30.18,0.2,SSE,9.2,-,N/A,Fog,Fog,160,2012-11-12 12:55:00
2:55 PM,39.2,35.6,87,30.18,0.1,SSE,8.1,-,N/A,Fog,Fog,150,2012-11-12 13:55:00
3:55 PM,39.2,35.6,87,30.18,0.1,ESE,6.9,-,N/A,Fog-Rain,Light Rain,120,2012-11-12 14:55:00
4:00 PM,39,35,80,,0,ESE,6.9,,,Rain,Light Rain,120,2012-11-12 15:00:00
4:55 PM,39.2,35.6,87,30.18,0.1,SSE,6.9,-,N/A,Fog,Fog,160,2012-11-12 15:55:00
5:55 PM,39.2,33.8,81,30.18,0.2,ESE,4.6,-,N/A,Fog,Fog,110,2012-11-12 16:55:00
6:55 PM,37.4,33.8,87,30.21,0.1,ESE,6.9,-,N/A,Fog,Fog,120,2012-11-12 17:55:00
7:00 PM,37,33,81,,0,ESE,6.9,,,Fog,Heavy Fog,120,2012-11-12 18:00:00
9:55 PM,37.4,33.8,87,30.24,0.1,East,1.2,-,N/A,Fog,Fog,80,2012-11-12 20:55:00
10:00 PM,37,33,81,,0,East,1.2,,,Fog,Heavy Fog,80,2012-11-12 21:00:00